Providence, RI

4:16 AM EDT on May 21, 2018 (GMT -0400)
Green State

Weather History for KPVD - June, 2013

Change the Weather History Date:

Sunday, June 16, 2013

  Actual Average Record
Temperature  
Mean Temperature 66 °F 68 °F  
Max Temperature 77 °F 78 °F 95 °F (1957)
Min Temperature 55 °F 59 °F 47 °F (1961)
Degree Days  
Heating Degree Days 0 1  
Month to date heating degree days 24 35  
Since 1 June heating degree days 24 35  
Since 1 July heating degree days 5318 5610  
Cooling Degree Days 1 4  
Month to date cooling degree days 44 50  
Year to date cooling degree days 88 76  
Since 1 June cooling degree days 44 50  
Growing Degree Days 16 (Base 50)    
Moisture  
Dew Point 55 °F    
Average Humidity 61    
Maximum Humidity 83    
Minimum Humidity 39    
Precipitation  
Precipitation 0.00 in 0.12 in 2.21 in (2017)
Month to date precipitation 8.99 2.22  
Year to date precipitation 23.59 22.29  
Snow  
Snow 0.00 in 0.00 in 0.00 in (2016)
Month to date snowfall 0.0 0.0  
Since 1 June snowfall 0.0 0.0  
Since 1 July snowfall 46.3 33.8  
Snow Depth 0.00 in    
Sea Level Pressure  
Sea Level Pressure 29.88 in    
Wind  
Wind Speed 8 mph (SW)    
Max Wind Speed 18 mph    
Max Gust Speed 23 mph    
Visibility 10 miles    
Events      
T = Trace of Precipitation, MM = Missing Value Source: NWS Daily Summary

Daily Weather History Graph

Daily Weather History Graph

Search for Another Location

Airport or City:

Astronomy

Jun. 16, 2013 Rise Set
Actual Time 5:10 AM EDT 8:22 PM EDT
Civil Twilight 4:36 AM EDT 8:56 PM EDT
Nautical Twilight 3:52 AM EDT 9:40 PM EDT
Astronomical Twilight 2:59 AM EDT 10:33 PM EDT
Moon 12:49 PM EDT (6/16) 12:20 AM EDT (6/16)
Length of Visible Light 16h 20m
Length of Day
15h 11m
Waxing Crescent, 49% of the Moon is Illuminated
Jun 16
Waxing Crescent
Jun 16
First Quarter
Jun 23
Full
Jun 30
Last Quarter
Jul 8
New

Hourly Weather History & Observations

Time (EDT) Temp. Dew Point Humidity Pressure Visibility Wind Dir Wind Speed Gust Speed Precip Events Conditions
12:51 AM 62.1 °F 51.1 °F 67% 29.96 in 10.0 mi West 8.1 mph - N/A   Clear
1:51 AM 60.1 °F 52.0 °F 75% 29.95 in 10.0 mi West 6.9 mph - N/A   Clear
2:51 AM 59.0 °F 52.0 °F 78% 29.96 in 10.0 mi West 5.8 mph - N/A   Clear
3:51 AM 57.9 °F 51.1 °F 78% 29.96 in 10.0 mi WSW 5.8 mph - N/A   Clear
4:51 AM 55.0 °F 50.0 °F 83% 29.95 in 10.0 mi Calm Calm - N/A   Clear
5:51 AM 57.0 °F 51.1 °F 81% 29.96 in 10.0 mi WSW 5.8 mph - N/A   Partly Cloudy
6:51 AM 60.1 °F 48.9 °F 67% 29.96 in 10.0 mi SW 5.8 mph - N/A   Partly Cloudy
7:51 AM 66.0 °F 51.1 °F 59% 29.96 in 10.0 mi WSW 5.8 mph - N/A   Scattered Clouds
8:51 AM 70.0 °F 51.1 °F 51% 29.95 in 10.0 mi West 4.6 mph - N/A   Scattered Clouds
9:51 AM 75.9 °F 51.1 °F 42% 29.94 in 10.0 mi WSW 5.8 mph - N/A   Mostly Cloudy
10:51 AM 75.9 °F 51.1 °F 42% 29.93 in 10.0 mi SW 9.2 mph - N/A   Mostly Cloudy
11:51 AM 73.0 °F 53.1 °F 49% 29.91 in 10.0 mi SSW 11.5 mph - N/A   Mostly Cloudy
12:51 PM 73.9 °F 54.0 °F 50% 29.89 in 10.0 mi SSW 9.2 mph - N/A   Mostly Cloudy
1:51 PM 77.0 °F 50.0 °F 39% 29.86 in 10.0 mi SSW 15.0 mph 21.9 mph N/A   Mostly Cloudy
2:51 PM 75.0 °F 51.1 °F 43% 29.83 in 10.0 mi SSW 15.0 mph - N/A   Mostly Cloudy
3:51 PM 73.9 °F 54.0 °F 50% 29.81 in 10.0 mi South 11.5 mph - N/A   Overcast
4:51 PM 73.0 °F 57.9 °F 59% 29.80 in 10.0 mi South 16.1 mph 19.6 mph N/A   Overcast
5:51 PM 71.1 °F 61.0 °F 70% 29.77 in 10.0 mi South 11.5 mph 18.4 mph N/A   Mostly Cloudy
6:51 PM 70.0 °F 62.1 °F 76% 29.77 in 10.0 mi SSW 10.4 mph - N/A   Mostly Cloudy
7:51 PM 69.1 °F 62.1 °F 78% 29.75 in 10.0 mi SSW 9.2 mph - N/A   Mostly Cloudy
8:51 PM 69.1 °F 62.1 °F 78% 29.76 in 10.0 mi SW 6.9 mph - N/A   Mostly Cloudy
9:51 PM 69.1 °F 62.1 °F 78% 29.78 in 10.0 mi SW 8.1 mph - N/A   Scattered Clouds
10:51 PM 68.0 °F 62.1 °F 81% 29.79 in 10.0 mi WSW 6.9 mph - N/A   Scattered Clouds
11:51 PM 68.0 °F 62.1 °F 81% 29.81 in 10.0 mi West 6.9 mph - N/A   Scattered Clouds